Location: Chuathbaluk
(61.5726°N, 159.2454°W)
Time: 04:34:34
(UTC+00:00)

FO-99 - Pass Details

Date: 21 January 2021
Orbit: 473 x 506 km, 97.2° (Epoch: 08 March)

Event Time Altitude Azimuth Distance (km) Brightness Sun altitude
Exits shadow 06:22:43 11° 344° (NNW) 1,672 ? -28.5°
Drops below altitude 10° 06:22:49 10° 344° (NNW) 1,711 ? -28.5°
Sets 06:24:53 0° 345° (NNW) 2,591 ? -28.8°
